SB KEPS @ AMSAT $ORB07011.O Orbital Elements 07011.OSCAR
HR AMSAT ORBITAL ELEMENTS FOR OSCAR SATELLITES FROM WA5QGD FORT WORTH,TX January 11, 2007 Send SUBSCRIBE KEPS/UNSUBSCRIBE KEPS to [email protected] only BID: ORB07011.O TO ALL RADIO AMATEURS BT
Satellite: AO-07 Catalog number: 07530 Epoch time: 07011.16219702 Element set: 777 Inclination: 101.5395 deg RA of node: 053.6577 deg Eccentricity: 0.0012009 Arg of perigee: 201.4700 deg Mean anomaly: 158.5869 deg Mean motion: 12.53572360 rev/day Decay rate: -2.8e-07 rev/day^2 Epoch rev: 47144 Checksum: 281
Satellite: AO-10 Catalog number: 14129 Epoch time: 07010.20108425 Element set: 0348 Inclination: 027.0402 deg RA of node: 297.2277 deg Eccentricity: 0.6048980 Arg of perigee: 348.5541 deg Mean anomaly: 002.2672 deg Mean motion: 02.05867797 rev/day Decay rate: 7.0e-08 rev/day^2 Epoch rev: 17731 Checksum: 287
Satellite: UO-11 Catalog number: 14781 Epoch time: 07011.49279122 Element set: 272 Inclination: 098.2012 deg RA of node: 031.0761 deg Eccentricity: 0.0008640 Arg of perigee: 321.9086 deg Mean anomaly: 038.1536 deg Mean motion: 14.79511519 rev/day Decay rate: 3.64e-06 rev/day^2 Epoch rev: 22656 Checksum: 279
Satellite: RS-10/11 Catalog number: 18129 Epoch time: 07011.56567162 Element set: 191 Inclination: 082.9243 deg RA of node: 174.0231 deg Eccentricity: 0.0010336 Arg of perigee: 232.5658 deg Mean anomaly: 127.4556 deg Mean motion: 13.72783137 rev/day Decay rate: 1.6e-07 rev/day^2 Epoch rev: 97974 Checksum: 298
Satellite: RS-15 Catalog number: 23439 Epoch time: 07010.90955111 Element set: 0020 Inclination: 064.8192 deg RA of node: 261.2728 deg Eccentricity: 0.0164058 Arg of perigee: 218.2711 deg Mean anomaly: 140.6475 deg Mean motion: 11.27551499 rev/day Decay rate: -3.9e-07 rev/day^2 Epoch rev: 49596 Checksum: 300
Satellite: FO-29 Catalog number: 24278 Epoch time: 07010.90621349 Element set: 0421 Inclination: 098.5293 deg RA of node: 351.8448 deg Eccentricity: 0.0351206 Arg of perigee: 130.8933 deg Mean anomaly: 232.3195 deg Mean motion: 13.52926383 rev/day Decay rate: 5.0e-07 rev/day^2 Epoch rev: 51363 Checksum: 297
Satellite: SO-33 Catalog number: 25509 Epoch time: 07011.26664905 Element set: 838 Inclination: 031.4309 deg RA of node: 032.9363 deg Eccentricity: 0.0354977 Arg of perigee: 135.5916 deg Mean anomaly: 227.3747 deg Mean motion: 14.28145071 rev/day Decay rate: 1.85e-06 rev/day^2 Epoch rev: 42880 Checksum: 315
Satellite: AO-40 Catalog number: 26609 Epoch time: 07010.70124764 Element set: 825 Inclination: 004.9129 deg RA of node: 186.3198 deg Eccentricity: 0.7998977 Arg of perigee: 256.1438 deg Mean anomaly: 013.0075 deg Mean motion: 01.25585833 rev/day Decay rate: -1.56e-06 rev/day^2 Epoch rev: 2846 Checksum: 326
Satellite: VO-52 Catalog number: 28650 Epoch time: 07010.37967806 Element set: 526 Inclination: 097.8507 deg RA of node: 084.5016 deg Eccentricity: 0.0028056 Arg of perigee: 049.2697 deg Mean anomaly: 311.0942 deg Mean motion: 14.81249829 rev/day Decay rate: 4.60e-06 rev/day^2 Epoch rev: 9105 Checksum: 316
/EX SB KEPS @ AMSAT $ORB07011.D Orbital Elements 07011.MICROS
HR AMSAT ORBITAL ELEMENTS FOR THE MICROSATS FROM WA5QGD FORT WORTH,TX January 11, 2007 Send SUBSCRIBE KEPS/UNSUBSCRIBE KEPS to [email protected] only BID: ORB07011.D TO ALL RADIO AMATEURS BT
Satellite: AO-16 Catalog number: 20439 Epoch time: 07010.50044478 Element set: 939 Inclination: 098.1894 deg RA of node: 013.8040 deg Eccentricity: 0.0010154 Arg of perigee: 300.3824 deg Mean anomaly: 059.6355 deg Mean motion: 14.31746586 rev/day Decay rate: -1.1e-07 rev/day^2 Epoch rev: 88598 Checksum: 302
Satellite: LO-19 Catalog number: 20442 Epoch time: 07011.82311153 Element set: 871 Inclination: 098.1823 deg RA of node: 024.5530 deg Eccentricity: 0.0011198 Arg of perigee: 295.2907 deg Mean anomaly: 064.7105 deg Mean motion: 14.31987879 rev/day Decay rate: -8.4e-07 rev/day^2 Epoch rev: 88631 Checksum: 305
Satellite: AO-27 Catalog number: 22825 Epoch time: 07011.51734779 Element set: 590 Inclination: 098.3108 deg RA of node: 348.4054 deg Eccentricity: 0.0008719 Arg of perigee: 011.6577 deg Mean anomaly: 348.4819 deg Mean motion: 14.29196488 rev/day Decay rate: 8.3e-07 rev/day^2 Epoch rev: 69311 Checksum: 334
Satellite: IO-26 Catalog number: 22826 Epoch time: 07010.82160104 Element set: 0285 Inclination: 098.3031 deg RA of node: 348.8767 deg Eccentricity: 0.0009368 Arg of perigee: 010.4020 deg Mean anomaly: 349.7352 deg Mean motion: 14.29441354 rev/day Decay rate: 1.0e-08 rev/day^2 Epoch rev: 69309 Checksum: 283
Satellite: PO-28 Catalog number: 22829 Epoch time: 07011.48410049 Element set: 566 Inclination: 098.2937 deg RA of node: 350.6960 deg Eccentricity: 0.0009606 Arg of perigee: 343.0023 deg Mean anomaly: 017.0840 deg Mean motion: 14.30138993 rev/day Decay rate: -5.3e-07 rev/day^2 Epoch rev: 69341 Checksum: 296
Satellite: GO-32 Catalog number: 25397 Epoch time: 07011.16222006 Element set: 203 Inclination: 098.4395 deg RA of node: 065.0632 deg Eccentricity: 0.0001051 Arg of perigee: 015.3406 deg Mean anomaly: 344.7797 deg Mean motion: 14.23118560 rev/day Decay rate: -1.6e-07 rev/day^2 Epoch rev: 44182 Checksum: 260
Satellite: MO-46 Catalog number: 26548 Epoch time: 07011.34374383 Element set: 694 Inclination: 064.5586 deg RA of node: 307.8667 deg Eccentricity: 0.0033176 Arg of perigee: 217.9079 deg Mean anomaly: 141.9684 deg Mean motion: 14.83083762 rev/day Decay rate: 7.0e-07 rev/day^2 Epoch rev: 34027 Checksum: 333
Satellite: NO-44 Catalog number: 26931 Epoch time: 07011.50344066 Element set: 495 Inclination: 067.0495 deg RA of node: 191.0923 deg Eccentricity: 0.0005177 Arg of perigee: 278.4738 deg Mean anomaly: 081.5825 deg Mean motion: 14.29468927 rev/day Decay rate: 6.7e-07 rev/day^2 Epoch rev: 27570 Checksum: 325
Satellite: SO-50 Catalog number: 27607 Epoch time: 07011.51269228 Element set: 215 Inclination: 064.5560 deg RA of node: 200.6930 deg Eccentricity: 0.0037512 Arg of perigee: 054.8349 deg Mean anomaly: 305.6278 deg Mean motion: 14.71217870 rev/day Decay rate: 4.1e-07 rev/day^2 Epoch rev: 21807 Checksum: 279
Satellite: CO-55 Catalog number: 27844 Epoch time: 07011.73332514 Element set: 936 Inclination: 098.7193 deg RA of node: 022.1637 deg Eccentricity: 0.0009759 Arg of perigee: 178.2817 deg Mean anomaly: 181.8373 deg Mean motion: 14.20484637 rev/day Decay rate: 4.5e-07 rev/day^2 Epoch rev: 18326 Checksum: 322
Satellite: CO-57 Catalog number: 27848 Epoch time: 07010.53653956 Element set: 899 Inclination: 098.7179 deg RA of node: 020.2387 deg Eccentricity: 0.0009531 Arg of perigee: 185.7210 deg Mean anomaly: 174.3858 deg Mean motion: 14.20307665 rev/day Decay rate: 5.7e-07 rev/day^2 Epoch rev: 18307 Checksum: 334
Satellite: AO-51 Catalog number: 28375 Epoch time: 07010.62060885 Element set: 720 Inclination: 098.1362 deg RA of node: 057.8773 deg Eccentricity: 0.0083886 Arg of perigee: 300.5613 deg Mean anomaly: 058.7320 deg Mean motion: 14.40551098 rev/day Decay rate: 2.3e-07 rev/day^2 Epoch rev: 13302 Checksum: 287
Satellite: CO-56 Catalog number: 28941 Epoch time: 07011.84371421 Element set: 321 Inclination: 098.1542 deg RA of node: 056.1455 deg Eccentricity: 0.0250875 Arg of perigee: 104.0478 deg Mean anomaly: 258.8780 deg Mean motion: 15.33272329 rev/day Decay rate: 2.0004e-04 rev/day^2 Epoch rev: 4942 Checksum: 294
Satellite: HO-59 Catalog number: 29484 Epoch time: 07011.77676801 Element set: 151 Inclination: 098.3125 deg RA of node: 039.1325 deg Eccentricity: 0.0253279 Arg of perigee: 101.8317 deg Mean anomaly: 261.1551 deg Mean motion: 15.39017138 rev/day Decay rate: 2.8498e-04 rev/day^2 Epoch rev: 1692 Checksum: 315
Satellite: NO-60 Catalog number: 29661 Epoch time: 07011.54496744 Element set: 30 Inclination: 051.6406 deg RA of node: 192.1738 deg Eccentricity: 0.0013631 Arg of perigee: 102.4517 deg Mean anomaly: 257.8025 deg Mean motion: 15.84438145 rev/day Decay rate: 4.7247e-04 rev/day^2 Epoch rev: 341 Checksum: 284
Satellite: NO-61 Catalog number: 29667 Epoch time: 07011.56035285 Element set: 20 Inclination: 051.6345 deg RA of node: 192.2686 deg Eccentricity: 0.0017886 Arg of perigee: 096.2560 deg Mean anomaly: 264.0480 deg Mean motion: 15.82668765 rev/day Decay rate: 1.5976e-04 rev/day^2 Epoch rev: 315 Checksum: 321
/EX SB KEPS @ AMSAT $ORB07011.W Orbital Elements 07011.WEATHER
HR AMSAT ORBITAL ELEMENTS FOR WEATHER SATELLITES FROM WA5QGD FORT WORTH,TX January 11, 2007 Send SUBSCRIBE KEPS/UNSUBSCRIBE KEPS to [email protected] only BID: ORB07011.W TO ALL RADIO AMATEURS BT
Satellite: NOAA-10 Catalog number: 16969 Epoch time: 07011.06641759 Element set: 496 Inclination: 098.7541 deg RA of node: 028.0851 deg Eccentricity: 0.0011670 Arg of perigee: 266.1917 deg Mean anomaly: 093.7935 deg Mean motion: 14.27314725 rev/day Decay rate: 1.2e-07 rev/day^2 Epoch rev: 5681 Checksum: 309
Satellite: NOAA-11 Catalog number: 19531 Epoch time: 07011.27700646 Element set: 472 Inclination: 098.8182 deg RA of node: 102.3753 deg Eccentricity: 0.0012350 Arg of perigee: 115.7142 deg Mean anomaly: 244.5288 deg Mean motion: 14.14832650 rev/day Decay rate: -4.1e-07 rev/day^2 Epoch rev: 94396 Checksum: 279
Satellite: NOAA-12 Catalog number: 21263 Epoch time: 07011.28968258 Element set: 967 Inclination: 098.7459 deg RA of node: 008.8520 deg Eccentricity: 0.0012540 Arg of perigee: 200.0902 deg Mean anomaly: 159.9788 deg Mean motion: 14.25520471 rev/day Decay rate: 7.0e-07 rev/day^2 Epoch rev: 81389 Checksum: 311
Satellite: MET-3/5 Catalog number: 21655 Epoch time: 07010.91527167 Element set: 0229 Inclination: 082.5552 deg RA of node: 114.0649 deg Eccentricity: 0.0012365 Arg of perigee: 240.6507 deg Mean anomaly: 119.3380 deg Mean motion: 13.17009893 rev/day Decay rate: 5.1e-07 rev/day^2 Epoch rev: 74070 Checksum: 280
